This is the latest recevied weather packets stored in our database for station/object WA4IKQ. If no packets are shown the sender has not sent any weather packets the latest 10 day(s).
| Time | Temp. | Humidity | Pressure | Rain* | Wind** | Luminosity | Snow |
|---|---|---|---|---|---|---|---|
| 1777868085 | 20.56° C | 74% | 1017.1 hPa | 0 mm | 0.89 m/s, 27° | - | - |
| 1777868026 | 20.56° C | 74% | 1017.1 hPa | 0 mm | 0.45 m/s, 49° | - | - |
| 1777867597 | 20.56° C | 74% | 1017.4 hPa | 0 mm | 0.45 m/s, 41° | - | - |
| 1777867182 | 20.56° C | 74% | 1017.4 hPa | 0 mm | 0.45 m/s, 41° | - | - |
| 1777866584 | 20.56° C | 73% | 1017.4 hPa | 0 mm | 0.89 m/s, 24° | - | - |
| 1777865765 | 21.11° C | 72% | 1017.4 hPa | 0 mm | 0.89 m/s, 336° | - | - |
| 1777865169 | 21.11° C | 72% | 1017.3 hPa | 0 mm | 0 m/s | - | - |
| 1777864783 | 21.11° C | 72% | 1017.3 hPa | 0 mm | 0 m/s | - | - |
| 1777847379 | 23.89° C | 61% | 1016 hPa | 0 mm | 3.58 m/s, 27° | - | - |
| 1777847196 | 23.89° C | 60% | 1016 hPa | 0 mm | 2.24 m/s, 34° | - | - |
| 1777846180 | 24.44° C | 58% | 1015.9 hPa | 0 mm | 3.13 m/s, 0° | - | - |
| 1777845878 | 24.44° C | 58% | 1015.9 hPa | 0 mm | 3.13 m/s, 0° | - | - |
| 1777845282 | 24.44° C | 57% | 1015.9 hPa | 0 mm | 0.89 m/s, 20° | - | - |
| 1777843908 | 24.44° C | 57% | 1015.7 hPa | 0 mm | 2.24 m/s, 66° | - | - |
| 1777843778 | 24.44° C | 57% | 1015.7 hPa | 0 mm | 2.24 m/s, 66° | - | - |
| 1777843401 | 25° C | 56% | 1015.8 hPa | 0 mm | 2.68 m/s, 24° | - | - |
| 1777842994 | 25° C | 56% | 1015.8 hPa | 0 mm | 1.79 m/s, 333° | - | - |
| 1777842654 | 25° C | 56% | 1015.8 hPa | 0 mm | 1.79 m/s, 339° | - | - |
| 1777842367 | 25.56° C | 56% | 1015.8 hPa | 0 mm | 4.02 m/s, 14° | - | - |
| 1777841788 | 25° C | 57% | 1015.8 hPa | 0 mm | 3.58 m/s, 28° | - | - |
| 1777840565 | 25.56° C | 56% | 1016 hPa | 0 mm | 3.58 m/s, 326° | - | - |
| 1777840109 | 25.56° C | 56% | 1015.9 hPa | 0 mm | 2.24 m/s, 46° | - | - |
| 1777839873 | 25.56° C | 56% | 1015.9 hPa | 0 mm | 2.24 m/s, 46° | - | - |
| 1777839701 | 25.56° C | 56% | 1016.1 hPa | 0 mm | 1.34 m/s, 14° | - | - |
| 1777839279 | 25.56° C | 56% | 1016.1 hPa | 0 mm | 1.34 m/s, 14° | - | - |
* Rain latest hour (hover to see other rain measurements)
** Current wind speed in m/s (hover to see current wind gust speed)